リニア彗星

C/2005 YW ( LINEAR )

English version
Home page
Total 6,336 html files since Dec. 4, 1995
Updated on September 21, 2007

---------------------------------------------------------------------

・ プロフィール

発見日 2005年12月21日
発見光度 19.9等
発見者 Lincoln Laboratory Near-Earth Asteroid Research project

・ 写真集

・ 軌道要素

Epoch 2006 Dec. 11.0 TT = JDT 2454080.5
T 2006 Dec. 7.84944 TT                                  MPC
q   1.9930231            (2000.0)            P               Q
z  +0.0052492      Peri.  234.63397     -0.83284034     +0.06259294
 +/-0.0000062      Node   302.21440     +0.35705469     -0.69846953
e   0.9895382      Incl.   40.54377     -0.42295263     -0.71289722

・ 星図

・ 光度変化

        m1 = 8.0 + 5 logΔ + 13.0 log r

---------------------------------------------------------------------

軌道要素はM.P.E.C. 2006-T62に掲載されたものです。
星図は StellaNavigator Ver.2.0 for Windows (アストロアーツ 編著 / アスキー出版局刊) で作成したものです。
光度グラフはComet for Windowsで作成したものです。

---------------------------------------------------------------------

Copyright(C) 1995-2008 Seiichi Yoshida (comet@aerith.net). All rights reserved.